[[{"header":{"parameterUnit":"m.s-1","parameterCategory":1,"la1":30.2991,"la2":30.254,"lo1":-89.0895,"lo2":-89.0444,"dy":0.0017,"dx":0.0017,"nx":28,"ny":28,"refTime":"2024-05-03T09:00:00:Z","depth":0,"parameterNumber":2,"parameterNumberName":"U-component_of_WINDS"},"data":[0,0,0,0,0,0,0,0,0,0,0,0,0,0,0,0,0,0,0,0,0,0,0,0,0,0,0,0,0,0,0,0,0,0,0,0,0,0,0,0,0,0,0,0,0,0,0,0,0,0,0,0,0,0,0,0,0,0,0.1695,0.17,0,0.2185,0.219,0.2196,0.2498,0.2499,0.2501,0.2502,0.3013,0.3025,0.3037,0,0,0,0,0,0,0,0,0,0,0,0,0,0.1033,0.1043,0.1694,0.17,0.1707,0.2184,0.219,0.2197,0.2497,0.2499,0.2501,0.2503,0.3009,0.3023,0.3038,0,0,0,0,0,0,0,0,0,0,0,0,0,0.1401,0.1046,0.1693,0.1914,0.1938,0.2182,0.2191,0.2199,0.2497,0.2499,0.2502,0.2504,0.3004,0.3022,0.304,0.3106,0,0,0.3096,0.3104,0,0,0,0,0,0,0,0,0.138,0.1425,0.1875,0.1899,0.1927,0.2282,0.2145,0.2503,0.2496,0.2285,0.2502,0.2505,0.2769,0.2806,0.2894,0.313,0.3152,0.3097,0.3108,0.3116,0.3121,0,0,0,0,0,0,0,0.1354,0.1406,0.1889,0.1881,0.1913,0.1993,0.2048,0.2214,0.2508,0.2304,0.2327,0.238,0.2783,0.2875,0.2908,0.3159,0.3097,0.3113,0.3124,0.3131,0.3483,0.3481,0,0,0,0,0,0,0.1292,0.1382,0.1873,0.1903,0.1653,0.2003,0.2064,0.2166,0.2507,0.2561,0.2378,0.2392,0.2843,0.2886,0.2927,0.303,0.3116,0.3133,0.3144,0.3484,0.3482,0.3481,0,0,0,0,0,0,0.1276,0.1332,0.1853,0.165,0.1722,0.2011,0.2124,0.2174,0.2266,0.2563,0.2618,0.2416,0.2846,0.2901,0.306,0.3051,0.3141,0.3158,0.3486,0.3484,0.3482,0.3232,0,0,0,0,0,0,0.1256,0.1325,0.1349,0.1647,0.1731,0.1973,0.2123,0.2182,0.2296,0.232,0.2614,0.2665,0.2852,0.3031,0.3078,0.3078,0.3172,0.3488,0.3485,0.3482,0.3243,0.3222,0.3204,0,0,0,0,0,0.1231,0.126,0.1348,0.1406,0.1767,0.1971,0.202,0.2232,0.2294,0.2323,0.2515,0.2656,0.3045,0.3045,0.31,0.3105,0.349,0.3486,0.3483,0.3251,0.3226,0.3204,0,0,0,0,0,0,0.0954,0.1303,0.1405,0.153,0.1719,0.2022,0.2064,0.2198,0.2375,0.239,0.265,0.2715,0.2848,0.2995,0.2988,0.3192,0.3284,0.3292,0.309,0.3068,0.3049,0.301,0.3187,0,0,0,0,0,0.0907,0.104,0.134,0.1422,0.1512,0.1771,0.1868,0.2016,0.2223,0.2305,0.2509,0.2707,0.2876,0.2981,0.3152,0.3267,0.3338,0.3299,0.328,0.3262,0.3265,0.3342,0.3329,0.3469,0.3469,0.3469,0,0,0.0812,0.102,0.1088,0.1372,0.1535,0.1672,0.1836,0.1973,0.2078,0.2328,0.2489,0.2646,0.2886,0.3024,0.3095,0.315,0.3243,0.3258,0.3242,0.3254,0.3337,0.3323,0.3311,0.3466,0.3467,0.3467,0,0,0.0708,0.0877,0.0966,0.1127,0.1373,0.1546,0.1567,0.1853,0.1966,0.2132,0.2323,0.2456,0.2739,0.2903,0.3023,0.299,0.3128,0.304,0.2937,0.3009,0.2998,0.299,0.2979,0.2972,0.3042,0.3041,0.3041,0,0.0559,0.0769,0.0995,0.1122,0.1243,0.1475,0.157,0.1717,0.2006,0.2087,0.2144,0.2508,0.2686,0.2867,0.2859,0.2949,0.2985,0.3005,0.2981,0.2975,0.297,0.2964,0.2959,0.3029,0.303,0.3032,0.3033,0,0.0575,0.0718,0.0761,0.1033,0.1161,0.1269,0.1518,0.1621,0.176,0.1929,0.21,0.2323,0.2544,0.26,0.2737,0.2804,0.283,0.293,0.3029,0.294,0.2939,0.2938,0.3011,0.3016,0.3019,0.3022,0,0,0.0303,0.0703,0.0715,0.0843,0.1135,0.1252,0.1377,0.1592,0.1676,0.1871,0.1984,0.2222,0.2318,0.2455,0.2615,0.2678,0.2641,0.2773,0.2783,0.274,0.2732,0.2652,0.2645,0.2736,0.2736,0.2737,0.2712,0,0.0242,0.047,0.0681,0.0835,0.0973,0.12,0.1309,0.1502,0.1666,0.1812,0.1996,0.216,0.2274,0.2359,0.2432,0.2628,0.2642,0.2634,0.2847,0.2851,0.2775,0.2644,0.256,0.2525,0.2713,0.2713,0.2713,0,0.0198,0.0381,0.0547,0.083,0.0896,0.0989,0.1207,0.1342,0.1569,0.1685,0.184,0.2009,0.2158,0.2243,0.2454,0.2443,0.2545,0.2656,0.266,0.2686,0.2773,0.2666,0.2519,0.2512,0.2714,0.2714,0.2714,0,-0.0017,0.0272,0.041,0.0513,0.0846,0.0907,0.105,0.128,0.1398,0.1591,0.1671,0.1879,0.1993,0.2153,0.2377,0.2418,0.2566,0.2669,0.2669,0.2663,0.2686,0.268,0.2551,0.2753,0.2753,0.2753,0.2753,0,-0.011,-0.0017,0.0318,0.0402,0.0516,0.0762,0.087,0.1034,0.1238,0.1362,0.1575,0.1688,0.1978,0.2128,0.2306,0.2455,0.2505,0.2606,0.2651,0.2585,0.2572,0.2652,0.266,0.2752,0.2752,0.2753,0.2753,0,-0.0335,-0.0107,0.0059,0.0363,0.0442,0.0512,0.0775,0.087,0.1048,0.1204,0.1255,0.1537,0.1725,0.1966,0.2231,0.2352,0.2481,0.2552,0.2402,0.2428,0.2414,0.2411,0.233,0.2333,0.2531,0.2529,0.2527,0,-0.0411,-0.0334,-0.0021,0.0076,0.0211,0.0365,0.0487,0.0737,0.0856,0.1125,0.1188,0.1393,0.1569,0.1862,0.2093,0.23,0.2377,0.2335,0.2409,0.2342,0.2376,0.2367,0.2378,0.2313,0.231,0.2307,0.2305,0,-0.057,-0.046,-0.0295,-0.0088,0.0051,0.0226,0.0412,0.0481,0.077,0.0895,0.1089,0.1225,0.1499,0.1701,0.1938,0.2093,0.2248,0.2281,0.2292,0.2223,0.2132,0.2182,0.2348,0.228,0.2283,0.2284,0.2286,0.2287,-0.0722,-0.0642,-0.0409,-0.023,-0.0064,0.0106,0.021,0.0403,0.0568,0.0806,0.0946,0.1136,0.1372,0.1707,0.1856,0.2013,0.2071,0.2086,0.209,0.2089,0.2068,0.2109,0.2057,0.2059,0.206,0.206,0.2061,0,-0.0871,-0.0709,-0.0547,-0.0294,-0.0152,-0.0018,0.0197,0.0308,0.0471,0.0676,0.0846,0.1073,0.1273,0.1522,0.174,0.1818,0.1896,0.1867,0.1862,0.1896,0.2004,0.1972,0.1801,0.1801,0.1801,0.1801,0.1801,0.1801,-0.0933,-0.079,-0.065,-0.0419,-0.0253,-0.0069,0.0043,0.0203,0.0368,0.061,0.0776,0.0937,0.1163,0.1401,0.1592,0.1662,0.1732,0.1681,0.1771,0.1866,0.1888,0.191,0.1882,0.1695,0.1694,0.1652,0.1651,0.1651]},{"header":{"parameterUnit":"m.s-1","parameterCategory":1,"la1":30.2991,"la2":30.254,"lo1":-89.0895,"lo2":-89.0444,"dy":0.0017,"dx":0.0017,"nx":28,"ny":28,"refTime":"2024-05-03T09:00:00:Z","depth":0,"parameterNumber":3,"parameterNumberName":"V-component_of_WINDS"},"data":[0,0,0,0,0,0,0,0,0,0,0,0,0,0,0,0,0,0,0,0,0,0,0,0,0,0,0,0,0,0,0,0,0,0,0,0,0,0,0,0,0,0,0,0,0,0,0,0,0,0,0,0,0,0,0,0,0,0,7.7065,7.7065,0,7.7037,7.7036,7.7036,7.6807,7.6801,7.6796,7.679,7.6762,7.6766,7.6771,0,0,0,0,0,0,0,0,0,0,0,0,0,7.6918,7.6922,7.7065,7.7065,7.7065,7.7037,7.7036,7.7036,7.6808,7.6801,7.6794,7.6788,7.6761,7.6766,7.6771,0,0,0,0,0,0,0,0,0,0,0,0,0,7.6946,7.6924,7.7065,7.6948,7.6937,7.7037,7.7036,7.7036,7.681,7.6801,7.6793,7.6785,7.6759,7.6765,7.6772,7.6983,0,0,7.6793,7.6796,0,0,0,0,0,0,0,0,7.6944,7.6951,7.6965,7.6956,7.6944,7.6917,7.6974,7.7018,7.6812,7.6858,7.679,7.6781,7.682,7.6822,7.6835,7.6982,7.6981,7.6793,7.6797,7.68,7.6802,0,0,0,0,0,0,0,7.6943,7.6951,7.7054,7.6966,7.6953,7.6894,7.6889,7.6981,7.6887,7.6853,7.6837,7.6836,7.6813,7.6829,7.6833,7.698,7.6793,7.6799,7.6803,7.6806,7.7291,7.7299,0,0,0,0,0,0,7.6957,7.6951,7.7055,7.7053,7.6923,7.6904,7.6898,7.6934,7.6885,7.687,7.6843,7.6826,7.6822,7.6825,7.6831,7.7069,7.68,7.6807,7.6811,7.7282,7.7292,7.7302,0,0,0,0,0,0,7.6955,7.6969,7.7056,7.6997,7.7004,7.6916,7.6958,7.6938,7.6953,7.6878,7.686,7.6877,7.6815,7.6821,7.6945,7.7065,7.681,7.6816,7.7271,7.7285,7.7297,7.7552,0,0,0,0,0,0,7.6952,7.697,7.7051,7.7001,7.7008,7.7173,7.6966,7.6943,7.6966,7.6942,7.6905,7.6891,7.6809,7.6936,7.6952,7.707,7.6821,7.726,7.7277,7.7293,7.7532,7.7572,7.7606,0,0,0,0,0,7.6948,7.7125,7.7056,7.707,7.7108,7.7181,7.7184,7.7086,7.6977,7.7055,7.7005,7.6892,7.705,7.6951,7.6967,7.7088,7.7252,7.7273,7.7292,7.7516,7.7564,7.7605,0,0,0,0,0,0,7.7194,7.7117,7.7039,7.7207,7.7202,7.7142,7.7239,7.7142,7.7169,7.7146,7.7023,7.7016,7.7158,7.7135,7.7027,7.7286,7.7131,7.7155,7.7296,7.7341,7.7377,7.7379,7.6827,0,0,0,0,0,7.7268,7.7334,7.7263,7.7417,7.7418,7.733,7.7358,7.7282,7.7272,7.7269,7.7229,7.7224,7.727,7.7305,7.7345,7.7528,7.7513,7.7619,7.7656,7.7686,7.7708,7.7796,7.7841,7.7367,7.7367,7.7367,0,0,7.7421,7.7387,7.7437,7.7466,7.7453,7.7521,7.733,7.7413,7.7462,7.7282,7.7395,7.7365,7.735,7.7503,7.7568,7.7489,7.7835,7.7712,7.7737,7.7741,7.7821,7.7866,7.7906,7.7381,7.7378,7.7376,0,0,7.7734,7.7718,7.784,7.783,7.7812,7.775,7.778,7.7734,7.7706,7.7817,7.7681,7.7738,7.7824,7.7816,7.7825,7.8128,7.8022,7.8144,7.8337,7.8425,7.8462,7.8494,7.8598,7.8637,7.8166,7.8167,7.8168,0,7.7928,7.8026,7.7917,7.8006,7.802,7.7858,7.7979,7.7974,7.7972,7.7984,7.7895,7.7994,7.7974,7.8119,7.8192,7.8206,7.8233,7.8148,7.8466,7.8497,7.8525,7.8623,7.8663,7.8182,7.818,7.8179,7.8177,0,7.8261,7.8332,7.8433,7.843,7.8455,7.8562,7.8465,7.8504,7.8425,7.8372,7.8484,7.8452,7.848,7.8509,7.8435,7.8643,7.8593,7.8488,7.8328,7.8587,7.8676,7.8713,7.8203,7.8197,7.8193,7.8189,0,0,7.8733,7.8662,7.8701,7.8694,7.8659,7.8711,7.8807,7.8831,7.8865,7.8867,7.8942,7.9015,7.8914,7.8923,7.8845,7.8923,7.9158,7.8806,7.8803,7.8869,7.938,7.9458,7.9503,7.9088,7.9095,7.9101,7.938,0,7.903,7.9189,7.9089,7.9263,7.9323,7.9166,7.9249,7.9235,7.9187,7.923,7.9177,7.9229,7.9095,7.9098,7.9168,7.9116,7.9259,7.9094,7.9154,7.9158,7.916,7.9551,7.9635,7.99,7.9414,7.942,7.9425,0,7.9399,7.9412,7.9591,7.9536,7.9558,7.9634,7.9645,7.9689,7.9669,7.9628,7.9635,7.9536,7.9623,7.9468,7.9584,7.9474,7.9492,7.947,7.9477,7.9477,7.9306,7.9558,7.9983,8.0021,7.9479,7.9475,7.9471,0,7.9718,7.9781,7.9894,7.9894,7.9835,7.9891,7.987,7.984,7.9859,7.9869,7.9879,7.9901,7.9912,7.993,7.9838,7.9734,7.9965,7.9803,7.9931,7.9933,7.9985,7.9983,8.0416,8.0003,8.0003,8.0002,8.0001,0,8.0058,8.0173,8.0035,8.0105,8.0227,8.011,8.0233,8.0195,8.0169,8.0226,8.0094,8.0151,8.0027,8.007,7.9999,8.0103,8.0111,8.0078,8.0057,8.0088,8.0092,8.0097,8.0075,8.0012,8.001,8.0008,8.0006,0,8.0436,8.0349,8.0461,8.0393,8.0379,8.0471,8.0413,8.0473,8.0414,8.0488,8.0499,8.0408,8.0451,8.0361,8.0394,8.0345,8.0491,8.0444,8.0498,8.0482,8.0614,8.0601,8.1063,8.1115,8.0674,8.0678,8.0682,0,8.0658,8.0741,8.068,8.0708,8.0692,8.074,8.0757,8.0644,8.0667,8.0646,8.0708,8.074,8.0759,8.0836,8.0772,8.0795,8.0744,8.0904,8.0747,8.0773,8.0741,8.0736,8.0741,8.0936,8.0941,8.0946,8.0949,0,8.1058,8.1009,8.1038,8.1051,8.1073,8.1079,8.1075,8.1106,8.0984,8.1017,8.1058,8.1073,8.1103,8.1135,8.1142,8.1118,8.1014,8.0999,8.1029,8.106,8.1087,8.107,8.0583,8.0989,8.0985,8.0982,8.098,8.0978,8.1361,8.1424,8.139,8.1425,8.1408,8.1406,8.1457,8.1403,8.1435,8.1448,8.138,8.1436,8.1407,8.1405,8.1392,8.1432,8.136,8.1405,8.1416,8.1428,8.1447,8.1083,8.1434,8.1433,8.1431,8.143,8.143,0,8.175,8.1718,8.1751,8.1747,8.1773,8.167,8.1658,8.1687,8.1737,8.1719,8.1739,8.1784,8.1813,8.175,8.1768,8.1813,8.1765,8.1822,8.1816,8.1811,8.1513,8.1483,8.186,8.1859,8.1859,8.1859,8.1859,8.1859,8.1955,8.2055,8.2002,8.2091,8.2058,8.2109,8.2111,8.2107,8.209,8.2146,8.2168,8.2126,8.2088,8.2102,8.2124,8.2104,8.2115,8.2188,8.2152,8.1875,8.1833,8.1792,8.1763,8.2193,8.2193,8.2445,8.2448,8.245]}]]